Location: Camps Bay
(33.9517°S, 18.3844°E)
Time: 07:04:25
(UTC+00:00)

Cosmos 1975 Rocket - Pass Details

Date: 18 January 2020
Orbit: 603 x 635 km, 82.5° (Epoch: 25 February)

Event Time Altitude Azimuth Distance (km) Brightness Sun altitude
Exits shadow 01:52:01 37° 18° (NNE) 951 3.7 -21.3°
Maximum altitude 01:53:34 65° 86° (E) 676 3.3 -21.0°
Drops below altitude 10° 01:57:54 10° 167° (SSE) 1,978 6.5 -20.4°
Sets 02:00:09 0° 169° (S) 2,889 7.4 -20.1°
